GW0883 Weather Reports


Display with metric or nautical units.
time (UTC)temp
F
wind
direction
speed
MPH
gust
MPH
rain 1hr
in
rain 24hr
in
rain mn
in
humidity
%
barometer
mb
20260504045049 35 225 1.0 1.0 0.00 0.00 0.00 53 1012.4
20260504044032 34 225 1.0 1.0 0.00 0.00 0.00 52 1012.5
20260504043049 34 225 1.0 2.0 0.00 0.00 0.00 53 1012.5
20260504042131 34 225 0.0 0.0 0.00 0.00 0.00 52 1012.3
20260504040231 34 225 0.0 1.0 0.00 0.00 0.00 52 1012.2
20260504035329 34 225 1.0 1.0 0.00 0.00 0.00 51 1012.0
20260504034329 34 225 0.0 0.0 0.00 0.00 0.00 51 1012.1
20260504033428 34 225 0.0 0.0 0.00 0.00 0.00 50 1012.0
20260504032429 34 225 0.0 0.0 0.00 0.00 0.00 50 1011.9
20260504031429 35 225 0.0 0.0 0.00 0.00 0.00 49 1011.9
20260504025430 36 225 0.0 0.0 0.00 0.00 0.00 50 1012.0
20260504024428 36 225 0.0 0.0 0.00 0.00 0.00 49 1011.8
20260504022429 37 225 0.0 1.0 0.00 0.01 0.00 49 1012.0
20260504021429 37 225 1.0 2.0 0.00 0.01 0.00 48 1011.9
20260504020429 38 247 0.0 1.0 0.00 0.01 0.00 48 1011.9
20260504015527 38 247 0.0 1.0 0.00 0.01 0.00 47 1011.8
20260504014527 38 247 0.0 0.0 0.00 0.01 0.00 48 1011.9
20260504013529 39 247 0.0 0.0 0.00 0.01 0.00 47 1011.7
20260504012527 39 247 0.0 0.0 0.00 0.01 0.00 48 1011.7
20260504011528 40 247 0.0 0.0 0.00 0.01 0.00 48 1011.7
20260504010528 41 247 0.0 0.0 0.00 0.01 0.00 47 1011.6
20260504005627 41 247 0.0 0.0 0.00 0.01 0.00 47 1011.5
20260504002727 44 247 0.0 0.0 0.00 0.01 0.00 47 1011.3
20260504001728 45 247 0.0 0.0 0.00 0.01 0.00 47 1011.2
20260504000728 46 247 0.0 0.0 0.00 0.01 0.00 48 1011.1
20260503235730 48 247 0.0 1.0 0.00 0.01 0.00 48 1011.0
20260503234828 48 292 0.0 0.0 0.00 0.01 0.00 48 1011.1
20260503232827 50 225 0.0 0.0 0.00 0.01 0.00 49 1010.9
20260503231828 51 252 3.0 6.0 0.00 0.01 0.00 49 1010.8
20260503230828 51 251 0.0 3.0 0.00 0.01 0.00 49 1010.7
20260503225927 51 203 1.0 3.0 0.00 0.01 0.00 49 1010.7
20260503224929 51 220 2.0 6.0 0.00 0.01 0.00 50 1010.5
20260503224028 51 185 1.0 2.0 0.00 0.01 0.00 51 1010.6
20260503223028 52 118 2.0 5.0 0.00 0.01 0.00 50 1010.5
20260503222929 52 14 4.0 8.0 0.00 0.01 0.00 50 1010.5
20260503222027 52 8 2.0 7.0 0.00 0.01 0.00 51 1010.4
20260503221029 52 239 4.0 7.0 0.00 0.01 0.00 52 1010.2
20260503220045 52 29 5.0 7.0 0.00 0.01 0.00 52 1010.2
20260503215128 52 269 3.0 8.0 0.00 0.01 0.00 53 1010.0
20260503214129 52 208 3.0 7.0 0.00 0.01 0.00 53 1009.9
20260503213128 51 222 4.0 6.0 0.00 0.01 0.00 53 1009.8
20260503212227 51 251 7.0 10.0 0.00 0.01 0.00 54 1009.8
20260503211228 51 247 2.0 8.0 0.00 0.01 0.00 55 1009.7
20260503210327 51 217 4.0 6.0 0.00 0.01 0.00 55 1009.6
20260503205329 52 253 2.0 3.0 0.00 0.01 0.00 56 1009.6
20260503204330 52 246 4.0 10.0 0.00 0.01 0.00 56 1009.4
20260503203427 52 221 2.0 7.0 0.00 0.02 0.00 57 1009.2
20260503202428 52 198 1.0 3.0 0.00 0.02 0.00 57 1009.2
20260503201430 52 42 6.0 16.0 0.00 0.02 0.00 58 1009.0
20260503195530 53 169 1.0 2.0 0.00 0.02 0.00 59 1009.0
20260503194528 53 235 9.0 12.0 0.00 0.02 0.00 60 1009.0
20260503193528 54 266 6.0 12.0 0.00 0.02 0.00 61 1009.0
20260503192627 54 256 6.0 10.0 0.00 0.02 0.00 61 1008.9
20260503191630 53 257 3.0 11.0 0.00 0.02 0.00 62 1008.9
20260503190629 52 136 3.0 7.0 0.00 0.02 0.00 63 1009.1
20260503185631 52 44 3.0 5.0 0.00 0.02 0.00 63 1009.0
20260503184629 52 246 4.0 9.0 0.00 0.02 0.00 64 1009.0
20260503183627 51 196 2.0 4.0 0.00 0.02 0.00 64 1008.9
20260503182628 52 216 2.0 5.0 0.00 0.02 0.00 65 1009.1
20260503181727 51 169 1.0 4.0 0.00 0.02 0.00 66 1009.0
20260503181627 51 223 1.0 4.0 0.00 0.02 0.00 65 1009.0
20260503180628 51 130 1.0 5.0 0.00 0.02 0.00 66 1009.1
20260503175628 51 335 2.0 4.0 0.00 0.02 0.00 66 1009.0
20260503174727 52 83 5.0 7.0 0.00 0.02 0.00 68 1008.8
20260503173730 51 321 0.0 3.0 0.00 0.02 0.00 68 1008.8
20260503171828 50 77 4.0 8.0 0.00 0.02 0.00 69 1009.0
20260503150926 45 96 3.0 7.0 0.00 0.02 0.00 77 1009.3
20260503131129 46 77 4.0 8.0 0.00 0.02 0.00 80 1009.4
20260503130128 46 81 3.0 7.0 0.00 0.02 0.00 81 1009.3
20260503120129 43 180 0.0 2.0 0.00 0.05 0.00 81 1009.5
20260503110229 40 192 0.0 2.0 0.00 0.09 0.00 83 1009.6
20260503071829 41 270 0.0 0.0 0.00 0.10 0.00 83 1011.0
20260503070828 41 270 0.0 0.0 0.00 0.10 0.00 84 1010.8